Tracking 19644 objects as of 25-Apr-2019
HD Live streaming from Space Station
objects crossing your sky now

SL-16 DEB

Track SL-16 DEB now!
10-day predictions


NORAD ID: 39901
Int'l Code: 1993-016CB
Perigee: 758.5 km
Apogee: 968.3 km
Inclination: 71.0 °
Period: 102.1 minutes
Semi major axis: 7234 km
RCS: Unknown
Launch date: March 26, 1993
Source: Commonwealth of Independent States (former USSR) (CIS)
Launch site: TYURATAM MISSILE AND SPACE COMPLEX (TTMTR)

Note: This is SATELLITE DEBRIS
aabbcc
Your satellite tracking list
Your tracking list is empty




NASA's NSSDC Master Catalog

Two Line Element Set (TLE):
1 39901U 93016CB  19113.71271198  .00001117  00000-0  58828-3 0  9996
2 39901  70.9763 237.3917 0144960 319.6709  39.3730 14.10907547672735
Source of the keplerian elements: AFSPC